Tracking 20093 objects as of 15-Dec-2019
HD Live streaming from Space Station
objects crossing your sky now

TITAN 3C TRANSTAGE DEB

Track TITAN 3C TRANSTAGE DEB now!


NORAD ID: 34172
Int'l Code: 1965-108DF
Perigee: 786.0 km
Apogee: 30,516.6 km
Inclination: 26.5 °
Period: 542.1 minutes
Semi major axis: 22022 km
RCS: 0.0224 m2 (small)
Launch date: December 21, 1965
Source: United States (US)
Launch site: AIR FORCE EASTERN TEST RANGE (AFETR)

Note: This is SATELLITE DEBRIS
aabbcc
Your satellite tracking list
Your tracking list is empty




NASA's NSSDC Master Catalog

Two Line Element Set (TLE):
1 34172U 65108DF  19341.58865142  .00000128  00000-0  53309-2 0  9997
2 34172  26.5282 271.0994 6750122  27.2262  61.9658  2.65649617131321
Source of the keplerian elements: AFSPC